カタログに戻る

FGN-100-D1

運用中通信SSO
NORAD 62655·PAYLOAD·🇹🇷 Turkey
この衛星名は、まだ公式ソースで確認されていません。

打ち上げ Jan 14, 2025 から Vandenberg Space Force Base

Loading…

次のパス (今後24時間)

TLE

最新Source: Space-Track

元期: Sep 14, 2026, 11:47 UTC

1 62655U 25009AY  26257.49127796  .00024698  00000-0  51373-3 0  9998
2 62655  97.3992 345.4191 0000346 325.8677  34.2550 15.45627934 92975

AllMySatでFGN-100-D1をリアルタイム追跡

Download on the App Store